Date String (YYYY-MM-DD hh:mm:ss) UTC,Instrument flags,Ambient pressure (hPa),Sample flow (lpm),Bypass flow (lpm),Sample temperature (°C),Ambient temperature (°C),ASC tube jacket temperature (°C),LED temperature (°C),Box temperature (°C),Sample RH (%),Span deviation,Mass concentration (μg/m³),Mass concentration (μg/m³),Mass concentration (μg/m³)
DateTimeUTC,F1_M11,P_M11,Q1_M11,Q2_M11,T1_M11,T2_M11,T3_M11,T4_M11,T5_M11,U1_M11,ZSPAN_M11,X0_M11,X2_M11,X1_M11
2022-12-11 07:00:00,,0822.5,5.00,0.00,23.5,22.0,00.0,32.4,25.3,08.7,0000.0,0018.16,0006.78,0005.61
2022-12-11 07:01:00,,0822.7,4.99,0.00,23.5,22.0,00.0,32.4,25.3,08.6,0000.0,0018.17,0006.78,0005.61
2022-12-11 07:02:00,,0822.6,4.99,0.00,23.5,22.0,00.0,32.4,25.2,08.7,0000.0,0017.80,0006.73,0005.60
2022-12-11 07:03:00,,0822.7,4.99,0.00,23.5,21.8,00.0,32.4,25.2,08.7,0000.0,0017.53,0006.67,0005.57
2022-12-11 07:04:00,,0822.6,5.00,0.00,23.5,21.6,00.0,32.4,25.2,08.7,0000.0,0016.73,0006.69,0005.57
2022-12-11 07:05:00,,0822.6,5.01,0.00,23.4,21.6,00.0,32.4,25.1,08.7,0000.0,0016.11,0006.68,0005.55
2022-12-11 07:06:00,,0822.6,5.02,0.00,23.4,21.7,00.0,32.3,25.1,08.7,0000.0,0016.83,0006.70,0005.54
2022-12-11 07:07:00,,0822.5,4.99,0.00,23.4,21.7,00.0,32.3,25.1,08.6,0000.0,0017.13,0006.72,0005.53
2022-12-11 07:08:00,,0822.4,4.99,0.00,23.4,21.7,00.0,32.3,25.1,08.6,0000.0,0017.59,0006.72,0005.54
2022-12-11 07:09:00,,0822.4,4.99,0.00,23.4,21.8,00.0,32.3,25.2,08.6,0000.0,0017.63,0006.71,0005.55
2022-12-11 07:10:00,,0822.4,5.00,0.00,23.4,21.8,00.0,32.3,25.2,08.6,0000.0,0017.39,0006.72,0005.55
2022-12-11 07:11:00,,0822.5,5.01,0.00,23.4,21.8,00.0,32.3,25.2,08.7,0000.0,0017.04,0006.70,0005.56
2022-12-11 07:12:00,,0822.6,5.01,0.00,23.4,21.9,00.0,32.3,25.2,08.7,0000.0,0017.19,0006.70,0005.57
2022-12-11 07:13:00,,0822.7,5.00,0.00,23.4,21.8,00.0,32.3,25.1,08.7,0000.0,0017.22,0006.73,0005.58
2022-12-11 07:14:00,,0822.6,4.99,0.00,23.4,21.8,00.0,32.3,25.1,08.8,0000.0,0016.84,0006.74,0005.60
2022-12-11 07:15:00,,0822.5,4.99,0.00,23.3,21.8,00.0,32.3,25.1,08.6,0000.0,0016.94,0006.73,0005.61
2022-12-11 07:16:00,,0822.4,5.00,0.00,23.3,21.8,00.0,32.3,25.1,08.8,0000.0,0017.21,0006.75,0005.62
2022-12-11 07:17:00,,0822.4,5.01,0.00,23.3,21.8,00.0,32.2,25.1,08.9,0000.0,0016.16,0006.76,0005.64
2022-12-11 07:18:00,,0822.4,5.01,0.00,23.3,21.8,00.0,32.2,25.2,08.9,0000.0,0016.47,0006.74,0005.66
2022-12-11 07:19:00,,0822.4,5.00,0.00,23.4,21.9,00.0,32.2,25.2,08.8,0000.0,0016.29,0006.70,0005.68
2022-12-11 07:20:00,,0822.4,5.00,0.00,23.3,21.9,00.0,32.2,25.1,08.7,0000.0,0016.34,0006.74,0005.68
2022-12-11 07:21:00,,0822.3,4.98,0.00,23.3,21.9,00.0,32.2,25.1,08.7,0000.0,0016.59,0006.76,0005.68
2022-12-11 07:22:00,,0822.4,5.01,0.00,23.3,21.9,00.0,32.2,25.2,08.6,0000.0,0016.56,0006.73,0005.65
2022-12-11 07:23:00,,0822.4,5.01,0.00,23.4,21.9,00.0,32.2,25.2,08.6,0000.0,0016.03,0006.70,0005.64
2022-12-11 07:24:00,,0822.4,5.00,0.00,23.4,21.8,00.0,32.2,25.2,08.6,0000.0,0016.86,0006.71,0005.63
2022-12-11 07:25:00,,0822.4,4.99,0.00,23.3,21.8,00.0,32.2,25.2,08.6,0000.0,0016.60,0006.68,0005.63
2022-12-11 07:26:00,,0822.4,4.99,0.00,23.3,21.8,00.0,32.2,25.1,08.7,0000.0,0016.62,0006.67,0005.62
2022-12-11 07:27:00,,0822.5,5.00,0.00,23.3,21.8,00.0,32.2,25.1,08.7,0000.0,0016.73,0006.66,0005.60
2022-12-11 07:28:00,,0822.5,5.02,0.00,23.3,21.8,00.0,32.2,25.1,08.7,0000.0,0016.52,0006.62,0005.59
2022-12-11 07:29:00,,0822.6,5.01,0.00,23.3,21.8,00.0,32.2,25.1,08.8,0000.0,0015.90,0006.63,0005.58
2022-12-11 07:30:00,,0822.6,4.99,0.00,23.3,21.8,00.0,32.2,25.0,08.8,0000.0,0015.59,0006.65,0005.55
2022-12-11 07:31:00,,0822.4,5.00,0.00,23.3,21.8,00.0,32.2,25.0,08.8,0000.0,0015.97,0006.64,0005.54
2022-12-11 07:32:00,,0822.1,4.98,0.00,23.3,21.8,00.0,32.2,25.1,08.8,0000.0,0017.02,0006.63,0005.54
2022-12-11 07:33:00,,0822.0,5.00,0.00,23.3,21.8,00.0,32.2,25.1,08.8,0000.0,0017.47,0006.66,0005.56
2022-12-11 07:34:00,,0822.3,5.01,0.00,23.2,21.6,00.0,32.2,25.0,08.9,0000.0,0017.43,0006.60,0005.57
2022-12-11 07:35:00,,0822.5,5.01,0.00,23.2,21.6,00.0,32.1,25.0,09.0,0000.0,0017.94,0006.60,0005.58
2022-12-11 07:36:00,,0822.5,5.00,0.00,23.2,21.6,00.0,32.1,24.9,09.0,0000.0,0018.49,0006.67,0005.58
2022-12-11 07:37:00,,0822.3,4.98,0.00,23.2,21.6,00.0,32.1,24.9,08.9,0000.0,0018.39,0006.69,0005.59
2022-12-11 07:38:00,,0822.2,4.99,0.00,23.2,21.6,00.0,32.1,24.9,08.9,0000.0,0017.60,0006.68,0005.59
2022-12-11 07:39:00,,0822.3,5.00,0.00,23.2,21.6,00.0,32.1,24.9,08.9,0000.0,0017.48,0006.69,0005.59
2022-12-11 07:40:00,,0822.4,5.02,0.00,23.2,21.6,00.0,32.1,25.0,09.0,0000.0,0018.64,0006.67,0005.59
2022-12-11 07:41:00,,0822.4,5.01,0.00,23.1,21.6,00.0,32.1,24.9,09.0,0000.0,0019.49,0006.66,0005.62
2022-12-11 07:42:00,,0822.3,4.98,0.00,23.1,21.6,00.0,32.1,24.9,08.9,0000.0,0018.60,0006.62,0005.62
2022-12-11 07:43:00,,0822.2,4.98,0.00,23.1,21.6,00.0,32.0,24.9,08.9,0000.0,0017.14,0006.58,0005.62
2022-12-11 07:44:00,,0822.3,4.99,0.00,23.1,21.6,00.0,32.0,24.9,08.9,0000.0,0016.49,0006.58,0005.62
2022-12-11 07:45:00,,0822.3,5.01,0.00,23.1,21.5,00.0,32.0,24.9,08.9,0000.0,0016.68,0006.67,0005.63
2022-12-11 07:46:00,,0822.3,5.01,0.00,23.1,21.5,00.0,32.0,24.9,08.9,0000.0,0015.57,0006.72,0005.66
2022-12-11 07:47:00,,0822.3,5.00,0.00,23.1,21.6,00.0,32.0,24.9,08.9,0000.0,0015.66,0006.71,0005.70
2022-12-11 07:48:00,,0822.5,4.99,0.00,23.1,21.6,00.0,32.0,24.8,08.9,0000.0,0016.92,0006.76,0005.75
2022-12-11 07:49:00,,0822.6,4.99,0.00,23.1,21.6,00.0,32.0,24.9,08.9,0000.0,0017.63,0006.78,0005.79
2022-12-11 07:50:00,,0822.4,5.00,0.00,23.1,21.6,00.0,32.0,24.8,09.0,0000.0,0018.78,0006.82,0005.83
2022-12-11 07:51:00,,0822.3,5.01,0.00,23.1,21.5,00.0,32.0,24.9,08.9,0000.0,0018.20,0006.88,0005.86
2022-12-11 07:52:00,,0822.2,5.01,0.00,23.0,21.5,00.0,32.0,24.8,08.9,0000.0,0017.68,0006.91,0005.89
2022-12-11 07:53:00,,0822.1,5.01,0.00,23.0,21.5,00.0,32.0,24.8,08.9,0000.0,0018.11,0006.93,0005.93
2022-12-11 07:54:00,,0822.2,4.99,0.00,23.0,21.5,00.0,31.9,24.9,08.9,0000.5,0018.27,0007.02,0005.97
2022-12-11 07:55:00,,0822.4,4.99,0.00,23.0,21.4,00.0,31.9,24.9,08.9,0000.6,0018.30,0007.12,0006.02
2022-12-11 07:56:00,,0822.3,5.02,0.00,23.0,21.2,00.0,31.9,24.8,08.9,0000.7,0018.30,0007.21,0006.06
2022-12-11 07:57:00,,0822.4,5.01,0.00,23.0,21.1,00.0,31.9,24.8,09.0,0001.7,0018.38,0007.21,0006.09
2022-12-11 07:58:00,,0822.4,4.98,0.00,22.9,21.0,00.0,31.9,24.7,09.0,0002.1,0018.57,0007.26,0006.10
2022-12-11 07:59:00,,0822.4,4.99,0.00,22.9,20.9,00.0,31.8,24.6,09.0,0002.1,0017.53,0007.24,0006.10
